Regional Weather Roundup
Issued by NWS Sterling, VA

Home | Current Version | Previous Version | Text Only | Print | Product List | Glossary Off
Versions: 1 2 3 4 5 6 7 8 9 10 11 12 13 14 15 16 17 18 19 20 21 22 23 24 25 26 27 28 29 30 31 32 33 34 35 36 37 38 39 40 41 42 43 44 45 46 47 48 49 50

000
ASUS41 KLWX 281310
RWRLWX

REGIONAL WEATHER ROUNDUP
NATIONAL WEATHER SERVICE BALTIMORE MD/WASHINGTON DC
900 AM EDT MON JUL 28 2014

Note: "FAIR" indicates few or no clouds below 12,000 feet
with no significant weather and/or obstructions to visibility.
 TC=TEMPERATURE CELSIUS

 * =Non NWS site. Station does not report precipitation (e.g. rain,
    snow, etc.), thunder, or fog.

DCZ001-MDZ009-015-VAZ040>042-051-053>054-281400-
WASHINGTON METRO
  /KDAA//-FT BELVOIR

CITY           SKY/WX    TMP DP  RH WIND       PRES   REMARKS
WASHINGTON NAT MOSUNNY   82  65  56 SW10      29.63R
DULLES         PTSUNNY   79  60  52 W16G24    29.64S
ANDREWS AFB    SUNNY     81  66  59 W10       29.63R
QUANTICO       SUNNY     80  65  59 SW12      29.64S
COLLEGE PARK*  MOSUNNY   81  68  65 W7        29.62R
LEESBURG*      PTSUNNY   77  66  69 W12G17    29.66R
MANASSAS*      SUNNY     75  70  83 CALM      29.65R
GAITHERSBURG*  MOSUNNY   75  64  69 W16       29.68S

$$

MDZ006>007-011-014-281400-
BALTIMORE METRO

CITY           SKY/WX    TMP DP  RH WIND       PRES   REMARKS
BWI AIRPORT    MOSUNNY   78  66  66 W9G18     29.61R
MD SCIENCE CTR   N/A     80  64  58 MISG      29.61R
MARTIN STATE   MOSUNNY   81  70  69 W12G18    29.62R
ANNAPOLIS      SUNNY     81  65  58 W12       29.61R
FORT MEADE*    MOSUNNY   75  70  83 W12       29.64R

$$

MDZ012-015-019>023-281400-
MARYLAND EASTERN SHORE

CITY           SKY/WX    TMP DP  RH WIND       PRES   REMARKS
OCEAN CITY     SUNNY     82  74  76 W10       29.62R
SALISBURY      NOT AVBL
BAY BRIDGE AP*   N/A     81  66  61 W12G17    29.61R
CAMBRIDGE*     SUNNY     81  70  69 W9G16     29.61S
EASTON*        SUNNY     82  73  74 W10       29.65R

$$

MDZ017>025-281400-
SOUTHERN MARYLAND

CITY           SKY/WX    TMP DP  RH WIND       PRES   REMARKS
PATUXENT RIVER MOSUNNY   81  68  64 W13G22    29.63R
ST INIGOES     SUNNY     81  68  64 W12       29.63R
LEONARDTOWN*   SUNNY     79  66  65 W10       29.65R

$$

MDZ003>005-281400-
NORTH CENTRAL MARYLAND

CITY           SKY/WX    TMP DP  RH WIND       PRES   REMARKS
FREDERICK*     PTSUNNY   77  68  73 W9G16     29.66R
HAGERSTOWN APT MOSUNNY   73  61  65 NW17      29.65R
WESTMINSTER*   MOSUNNY   73  68  83 W13G21    29.64R

$$

MDZ501>502-281400-
WESTERN MARYLAND

CITY           SKY/WX    TMP DP  RH WIND       PRES   REMARKS
OAKLAND*       CLOUDY    57 N/A N/A W13G21    29.78R
CUMBERLAND*    MOSUNNY   73  59  60 W6G20     29.73R

$$

VAZ025>031-281400-
SHENANDOAH VALLEY

CITY           SKY/WX    TMP DP  RH WIND       PRES   REMARKS
WINCHESTER*    MOSUNNY   72  63  73 W12       29.68R
STAUNTON*      SUNNY     75  56  50 W9G17     29.74R

$$

WVZ021-048>050-054>055-281400-
EASTERN WEST VIRGINIA PANHANDLE

CITY           SKY/WX    TMP DP  RH WIND       PRES   REMARKS
MARTINSBURG    PTSUNNY   74  60  61 W8        29.67R
PETERSBURG*    PTSUNNY   71  53  51 W20       29.73R

$$

VAZ036>039-050-281400-
CENTRAL FOOTHILLS

CITY           SKY/WX    TMP DP  RH WIND       PRES   REMARKS
CHARLOTTESVILL SUNNY     77  61  57 VRB5      29.69R
ORANGE*        SUNNY     79  61  53 S10G17    29.68S

$$

VAZ055>057-281400-
NORTH AND CENTRAL PIEDMONT

CITY           SKY/WX    TMP DP  RH WIND       PRES   REMARKS
FREDERICKSBRG* SUNNY     80  66  61 W13G18    29.64S
STAFFORD*      SUNNY     79  67  66 SW7       29.69R

$$

NCZ024-NYZ072-PAZ021-071-VAZ022-071-281400-
OTHER REGIONAL OBSERVATIONS

CITY           SKY/WX    TMP DP  RH WIND       PRES   REMARKS
NEW YORK CITY  CLOUDY    72  67  84 MISG      29.58S
PHILADELPHIA   MOSUNNY   76  67  73 W14       29.59R
PITTSBURGH     CLOUDY    64  59  83 W16       29.73R
ROANOKE        MOSUNNY   74  56  53 NW16G25   29.79R
RICHMOND       MOSUNNY   83  66  56 W16       29.68R
RALEIGH        MOSUNNY   77  65  66 W7        29.80R

$$

ANZ530>537-281400-
MARINE OBSERVATIONS

STATION/POSITION TIME  TEMP    WIND        PRES
                       AIR SEA DIR/SP/G
                 (UTC) (F)     (DEG/KT/KT) (MB)
THOMAS PT LIGHT  1300   79 79  270/ 11/ 12 1003.3R
BALT KEY BRIDGE  1300   78     230/ 11/ 13 1002.3R
COVE POINT       1300   79     290/ 10/ 12 1002.9R
LEWISETTA        1300   80 79  280/ 12/ 17 1003.2S
SOLOMONS ISLAND  1300      80                N/A
PINEY POINT      1300          290/ 14/ 18   N/A

$$



USA.gov is the U.S. government's official web portal to all federal, state and local government web resources and services.